RH
56 86 95 94 68 47 26 21 18 14 11 11 12 15 15 19 14 12 12 13 10 9 11 14 8 5 7 7 6 6 6 7 8 7 8 11 13 14 14 14 14 13 13 13 13 13 13 12 12
83 77 100 99 83 55 36 26 22 18 14 12 12 12 12 12 12 10 10 9 7 8 10 8 7 10 13 15 16 17 16 16 16 16 16 15 15 15 14 14 13 12 10 8 5 4 3 3 4
40 87 93 99 90 65 50 34 27 22 17 13 12 11 10 10 12 11 10 10 10 9 11 11 12 14 17 19 20 21 19 18 17 16 16 15 14 13 12 10 6 4 3 2 2 2 2 2 2
54 97 81 94 84 80 66 46 30 25 19 18 14 12 11 11 11 9 12 12 14 13 14 14 15 19 22 23 21 20 18 17 16 15 14 13 12 9 5 4 3 2 2 2 2 2 2 3 3
43 86 82 71 77 92 91 58 36 29 23 21 23 16 12 13 12 12 15 16 17 19 20 18 20 22 24 24 22 19 17 16 15 13 11 8 6 4 3 2 2 2 2 2 2 3 4 4 4
44 51 80 41 69 83 97 91 52 38 30 23 23 21 17 17 16 16 20 21 19 20 22 24 26 28 27 25 22 19 17 15 13 10 7 6 5 3 2 2 2 2 2 3 4 6 6 5 5
33 56 44 42 71 95 97 96 85 49 32 29 26 22 21 19 18 20 19 22 21 23 24 26 30 30 27 23 21 19 15 14 11 8 7 6 4 3 2 2 2 2 3 4 5 6 6 6 5
43 43 50 51 60 94 97 92 84 66 40 31 33 22 23 22 23 29 23 25 26 29 29 31 32 32 28 23 20 18 15 12 10 8 6 5 4 2 2 2 3 3 3 4 4 5 6 5 4
45 50 49 38 48 91 97 96 100 89 70 32 39 29 32 30 26 35 31 31 30 32 33 36 36 33 27 23 20 17 14 11 8 7 6 4 3 3 2 3 3 3 3 3 4 6 5 4 4
63 42 41 35 51 57 98 98 96 86 84 53 34 39 34 36 32 40 50 50 47 48 48 45 42 36 26 22 19 16 12 8 6 6 5 4 3 3 3 3 4 5 4 4 6 7 7 5 4
63 36 34 42 78 85 94 88 98 99 90 71 45 53 48 59 53 58 63 61 58 48 54 49 42 34 26 22 17 14 10 8 6 6 5 4 5 5 5 4 8 6 5 8 10 10 9 8 6
53 49 41 56 99 95 92 98 95 97 94 81 65 67 54 62 72 61 68 72 76 64 53 46 38 27 22 19 15 12 10 8 8 8 5 5 6 6 5 5 6 9 17 17 19 22 21 16 13
37 65 43 86 85 98 84 96 98 97 97 87 76 72 70 63 71 71 72 66 73 72 47 42 34 24 19 17 15 14 13 10 10 8 6 6 8 8 8 8 7 7 7 11 10 9 22 32 31
23 64 78 77 82 97 94 95 96 98 96 90 80 73 80 71 64 64 73 64 72 72 55 30 26 24 20 17 14 13 12 10 9 8 8 14 12 10 14 14 15 13 8 9 14 14 13 15 22
15 43 85 93 75 78 97 97 91 96 97 98 87 83 94 88 66 55 40 43 55 75 69 51 40 30 22 16 14 12 11 10 10 12 13 25 17 14 19 20 15 9 7 7 10 10 8 7 8
14 24 49 88 91 83 94 84 98 95 97 97 98 99 97 96 70 51 42 35 31 31 42 55 50 36 22 19 15 13 12 12 12 13 21 25 19 16 19 14 13 10 9 11 12 13 13 13 12
14 14 19 45 61 82 91 84 98 95 92 95 99 97 93 85 79 58 46 37 31 28 25 25 42 39 31 30 24 17 16 13 12 13 18 15 22 21 13 20 22 19 18 19 18 16 17 15 11
19 13 15 21 50 68 88 83 99 97 85 93 98 91 94 90 93 70 61 42 33 30 26 23 22 26 32 37 30 27 16 14 12 12 28 15 17 20 15 27 21 19 22 23 25 22 24 27 27
31 17 16 28 49 80 74 79 90 95 99 96 90 87 90 90 94 94 59 51 37 31 32 29 26 24 23 23 24 24 32 34 32 30 26 31 24 17 20 20 23 22 20 21 17 19 29 38 36
60 30 18 42 64 65 98 88 82 82 80 91 97 96 96 95 88 79 76 50 43 40 35 35 33 30 27 28 39 39 30 38 44 38 31 24 24 28 16 16 37 41 41 21 21 18 18 24 34
73 46 41 28 28 37 50 64 92 63 66 71 82 90 96 83 82 82 74 58 48 44 40 38 34 31 27 25 28 24 22 22 22 21 20 21 26 30 38 35 40 30 22 19 26 22 19 11 15
94 80 61 41 25 22 37 33 53 68 64 46 58 80 86 80 74 74 79 76 64 46 44 40 35 32 30 31 31 30 27 23 20 19 26 40 24 18 12 16 19 16 17 12 10 10 10 21 29
94 100 81 62 64 61 57 40 39 56 64 50 43 57 98 78 74 73 79 81 73 66 53 41 38 33 29 30 33 32 31 26 22 20 16 14 13 12 11 10 9 9 10 9 8 8 17 16 19
89 99 73 71 69 58 70 58 33 44 43 60 42 38 92 89 74 72 73 81 83 63 52 58 64 51 47 44 44 47 44 28 22 21 18 15 14 12 11 10 10 9 7 7 7 8 11 12 21
94 100 98 93 73 33 50 47 23 39 36 43 49 38 63 92 74 79 79 77 80 85 84 73 63 64 67 63 63 48 28 22 22 20 17 15 13 12 12 11 8 8 8 8 10 9 8 7 6
82 77 64 56 42 39 49 36 29 48 50 52 50 38 41 75 79 79 76 84 90 89 93 94 89 73 47 37 59 51 42 25 16 15 12 11 11 12 10 9 9 9 9 11 9 9 5 5 4
79 65 66 56 50 46 42 39 52 63 61 57 54 40 35 54 97 92 98 100 100 93 95 96 91 66 41 47 39 28 17 16 13 12 11 11 9 9 9 10 10 11 11 9 11 6 5 6 6
74 60 54 69 85 50 39 38 55 85 81 68 63 41 37 41 96 71 42 42 59 66 72 86 97 81 56 47 43 26 17 15 15 16 16 12 10 10 10 11 12 10 9 12 8 5 5 5 6
71 67 42 84 78 71 58 43 62 96 87 77 74 56 43 44 80 91 72 34 30 29 28 33 35 45 43 21 19 21 26 27 24 18 13 11 10 11 12 12 10 9 12 8 6 5 4 6 8
41 29 41 49 57 70 63 49 82 97 84 80 73 62 54 43 47 96 77 38 25 24 25 30 51 36 26 19 18 17 16 15 13 12 12 11 13 12 11 10 9 13 10 6 6 5 6 8 8
Wind_Speed
60 59 58 55 51 49 45 40 42 44 42 41 38 40 39 37 36 31 25 22 20 19 18 17 15 13 12 10 8 8 8 7 7 8 8 8 9 10 10 10 10 11 11 11 12 14 14 14 15
58 62 58 58 57 52 44 41 44 44 42 42 39 40 37 36 35 30 22 21 23 21 20 17 15 13 11 9 8 7 7 7 7 8 9 10 11 11 10 11 11 12 13 13 12 14 15 15 15
65 61 63 58 60 55 45 44 47 46 44 43 40 39 37 35 32 27 22 19 19 20 19 18 16 13 11 11 10 9 9 10 11 11 12 12 11 11 11 11 12 12 14 14 14 14 16 15 15
63 63 68 63 59 54 45 48 51 48 45 42 39 42 40 37 32 30 25 22 21 21 19 18 16 14 13 12 12 11 12 12 12 13 12 12 12 12 11 11 13 14 13 13 14 14 16 15 16
64 67 68 68 59 54 47 51 54 50 48 44 41 43 41 37 32 30 27 25 24 23 20 19 17 16 15 13 13 15 12 13 13 13 13 12 12 13 12 12 12 13 13 14 14 14 15 15 17
60 69 69 71 61 52 49 53 56 53 51 49 45 44 42 39 35 34 29 28 26 24 22 20 19 18 17 15 15 15 16 14 14 13 13 14 15 14 13 12 13 13 13 13 13 14 15 16 16
56 62 68 68 61 51 55 56 57 59 55 50 48 47 45 42 37 35 33 30 28 27 25 23 21 20 19 18 17 16 16 17 16 15 14 15 16 15 14 14 14 14 14 14 14 15 15 16 17
53 57 65 70 67 60 57 55 62 62 59 55 51 51 47 42 38 35 34 33 30 28 27 25 24 22 21 20 19 17 17 16 17 17 17 17 17 16 16 16 15 15 15 15 15 16 16 16 17
50 55 61 70 63 60 50 55 58 63 60 60 52 52 46 46 42 38 36 34 32 30 28 26 26 24 23 23 21 19 18 18 18 17 17 18 18 18 18 17 16 16 15 15 16 17 17 17 17
50 55 52 55 48 50 62 56 61 62 62 62 60 53 50 48 44 40 37 35 34 33 31 30 29 27 25 24 22 21 20 19 18 17 17 17 18 18 18 18 17 16 15 16 17 17 18 18 18
47 47 44 49 46 54 62 51 56 59 60 62 63 54 52 49 47 42 39 37 37 36 34 32 31 29 26 25 24 23 22 21 20 18 17 18 19 18 17 17 17 16 17 18 19 18 19 20 20
48 44 48 49 51 52 59 53 54 46 52 60 64 58 56 51 47 45 41 39 38 37 37 35 32 29 28 27 26 24 23 21 21 20 19 19 20 20 18 17 17 18 19 20 20 20 22 23 23
50 46 49 49 55 47 67 54 60 51 47 55 59 62 57 55 49 45 45 45 41 38 36 36 34 32 30 28 27 26 24 23 23 23 21 20 21 20 19 18 18 20 21 22 23 22 22 24 25
46 49 47 52 52 50 57 62 49 43 50 50 55 63 56 56 54 45 44 45 43 40 38 38 35 33 32 31 30 27 25 25 25 24 23 21 22 23 22 21 22 23 23 23 23 24 24 26 28
46 48 48 48 48 46 50 57 50 47 46 54 52 54 52 51 53 51 44 45 46 42 39 36 36 34 34 33 31 29 28 27 26 25 24 23 23 24 24 24 25 26 26 26 26 28 29 29 31
48 48 50 47 45 43 53 58 52 47 47 38 42 52 49 51 50 49 48 46 46 46 43 41 38 37 35 33 33 31 29 28 27 26 26 26 27 26 25 26 27 28 29 28 29 30 31 31 32
50 46 42 45 42 39 42 49 41 45 46 43 35 42 47 52 50 44 47 49 46 45 45 43 41 39 37 37 35 34 31 29 29 28 29 29 27 26 28 29 29 29 29 29 30 31 31 32 33
48 46 44 41 38 40 36 43 43 40 47 43 46 44 44 45 49 46 44 47 48 45 44 45 43 41 40 38 36 33 32 32 32 31 30 29 27 29 30 31 32 32 30 29 30 32 33 34 36
45 42 40 40 41 39 37 40 41 47 43 44 43 42 43 49 49 51 49 48 50 50 45 43 41 39 41 40 38 36 33 35 33 31 31 29 30 32 32 33 33 34 33 32 32 34 35 36 39
38 39 38 34 35 38 37 37 45 48 48 43 38 44 43 46 52 51 51 48 48 46 45 41 39 38 37 39 39 37 35 34 31 31 31 33 34 34 33 34 35 35 35 36 36 37 38 38 41
35 36 32 35 36 34 35 41 41 45 49 46 46 38 42 42 44 49 48 48 46 45 44 42 40 38 40 40 40 38 34 32 33 33 34 35 35 35 35 35 36 38 38 38 40 41 42 41 43
30 30 32 34 34 33 32 35 40 38 43 49 45 43 38 42 40 40 46 48 49 46 44 43 44 44 43 39 37 36 35 34 34 34 36 36 37 37 37 38 39 39 40 41 42 43 43 43 42
30 26 28 28 28 27 29 33 38 41 40 41 43 42 41 39 38 38 38 45 49 50 49 43 43 43 42 41 38 35 35 36 38 38 39 39 40 40 40 40 41 41 43 43 43 43 42 40 41
33 25 25 27 26 30 26 28 32 34 35 38 41 38 45 42 40 40 38 40 45 51 47 49 52 47 42 42 42 43 41 41 41 42 42 41 42 43 43 44 44 44 43 42 42 40 38 38 40
34 29 28 31 30 27 27 30 24 24 34 40 43 38 38 43 38 38 42 41 40 42 49 52 50 50 53 53 52 45 43 42 42 42 41 41 42 43 44 45 45 44 44 43 39 38 36 39 43
32 32 34 32 30 26 26 21 18 20 26 39 45 42 40 37 37 37 43 43 42 41 42 44 46 42 41 44 47 48 47 44 42 41 39 40 41 41 42 43 43 44 42 38 37 36 38 43 44
33 31 30 28 25 28 23 15 16 18 24 34 44 41 38 34 33 35 38 45 47 43 42 41 45 41 37 35 37 39 40 39 39 40 40 40 41 42 42 42 41 39 36 36 35 36 39 37 34
34 25 24 22 19 26 30 23 15 13 26 33 41 40 37 39 36 35 32 35 39 39 40 41 43 44 43 39 39 39 39 39 40 41 41 42 42 42 41 39 37 35 34 33 35 36 37 35 37
35 25 30 27 28 27 24 26 17 19 25 32 40 37 37 36 39 38 34 34 36 36 36 37 37 38 39 38 38 38 40 41 41 42 42 42 41 39 38 36 35 34 33 34 37 37 35 34 36
29 26 27 30 27 31 26 22 15 12 17 25 36 39 37 36 37 39 37 33 34 35 36 36 37 37 38 39 41 40 40 41 41 41 40 39 37 36 36 35 34 34 33 35 38 39 34 33 36
Wind_Direction
221 220 221 221 218 216 218 215 214 217 215 215 210 216 218 225 233 230 220 220 226 221 221 220 219 217 216 221 225 234 246 256 267 269 275 283 288 293 298 300 304 310 308 307 309 306 309 310 310
219 219 221 223 220 212 215 214 219 217 216 216 213 214 217 221 230 235 232 230 224 217 214 215 213 215 218 226 235 243 253 259 267 273 278 279 281 284 290 299 301 298 298 302 309 306 307 310 311
217 218 222 223 222 213 210 213 218 217 214 218 213 215 215 216 224 228 227 224 222 218 215 215 214 219 229 236 241 254 262 269 271 273 271 273 277 282 288 293 300 301 304 307 308 311 309 308 303
214 217 217 221 222 215 207 212 217 220 215 214 217 216 213 210 211 215 214 218 223 222 223 223 220 223 234 246 256 254 261 262 262 262 267 274 279 281 290 299 300 303 304 308 306 311 307 306 304
217 216 219 215 219 214 206 215 220 217 219 210 211 220 215 213 206 214 216 217 220 226 228 230 230 235 238 244 256 261 258 260 263 270 279 281 285 290 296 298 297 297 301 305 307 306 305 304 300
219 219 221 213 214 209 201 209 218 216 218 214 209 214 219 212 206 210 212 219 219 224 229 231 236 239 242 241 244 256 264 262 269 275 281 288 292 294 295 295 292 295 298 298 301 302 303 299 301
220 220 221 216 208 209 205 201 211 215 215 216 213 211 217 219 210 211 216 219 221 224 229 232 237 243 245 244 240 245 257 272 275 276 281 289 292 292 294 293 293 294 293 296 298 300 298 300 301
223 218 219 217 213 215 209 204 210 215 214 213 213 214 215 219 217 215 216 220 223 224 231 235 241 244 246 246 245 244 247 252 266 281 288 290 290 292 293 294 297 296 297 297 298 299 299 300 302
220 220 217 215 221 215 216 206 213 216 215 213 212 218 214 218 217 217 218 222 228 229 233 238 242 245 248 252 254 253 252 252 254 265 278 285 288 291 291 293 295 294 293 295 297 300 302 302 300
217 220 216 215 221 219 222 207 214 216 215 216 212 215 218 220 218 218 219 220 225 230 231 237 242 244 247 251 257 257 257 258 261 264 272 275 276 278 282 284 284 285 289 292 296 298 301 303 307
220 219 215 212 214 218 217 212 205 213 215 215 218 211 216 222 219 218 221 222 228 231 235 238 241 244 246 250 251 253 257 263 268 271 272 271 273 275 275 275 280 288 293 297 297 301 302 304 306
217 212 209 209 209 210 213 210 197 199 211 217 218 213 213 220 222 221 223 225 229 231 234 237 240 241 243 245 249 253 259 265 271 274 271 272 273 275 278 282 286 292 292 294 300 303 305 305 306
212 212 209 210 207 203 214 213 203 198 200 210 214 218 215 216 219 223 223 227 228 230 231 234 235 237 240 242 247 253 261 267 271 273 277 279 282 280 278 280 285 288 291 296 299 300 299 299 300
213 210 213 214 212 213 213 217 206 199 204 204 210 216 211 216 218 217 222 223 227 230 230 231 232 234 239 243 247 253 259 263 268 273 276 277 279 283 284 286 287 289 291 292 293 295 296 296 296
210 213 215 214 215 216 212 210 208 196 194 205 212 217 209 212 218 217 217 221 223 226 230 230 231 233 236 241 246 250 255 259 264 269 272 272 275 276 280 284 286 288 290 292 293 295 295 294 295
209 212 214 217 217 212 215 210 217 219 210 192 206 212 214 212 218 221 218 218 222 223 225 226 229 232 236 240 245 249 253 258 262 266 267 268 271 277 281 284 285 287 291 293 294 295 297 298 298
210 211 216 219 221 219 219 214 215 220 225 223 209 214 220 214 207 218 225 222 220 223 226 229 228 231 234 238 242 247 251 256 259 259 260 263 270 275 278 278 281 285 287 290 292 293 292 290 290
209 211 214 216 215 218 218 214 215 217 224 224 223 225 220 220 217 211 222 227 224 223 226 230 231 234 235 240 245 249 253 257 258 259 261 265 269 271 275 278 282 285 285 286 287 288 288 287 289
211 217 214 213 216 214 212 219 220 223 221 225 223 226 227 226 223 216 217 222 227 225 225 228 234 237 239 240 243 245 251 254 258 262 267 271 272 273 275 279 282 282 284 287 290 291 290 291 292
208 212 214 215 220 225 219 216 223 222 223 222 221 222 225 223 223 222 217 224 227 230 232 232 232 237 244 248 248 246 248 255 259 262 264 266 268 273 277 280 281 285 288 294 293 293 292 292 290
198 208 209 213 218 221 226 224 227 226 224 228 226 226 228 225 225 226 222 222 227 229 230 233 237 237 240 243 249 253 251 254 258 259 261 264 269 273 276 280 280 284 288 291 293 292 293 293 292
192 201 207 209 214 222 228 229 229 233 232 225 227 226 227 228 228 226 227 226 226 230 230 231 231 232 235 241 248 256 261 262 262 263 266 268 271 275 277 279 281 284 287 288 289 290 292 292 294
189 195 203 208 215 222 220 223 219 230 232 229 226 228 227 228 228 229 231 229 228 231 232 233 236 239 241 242 244 250 258 263 266 268 268 270 273 274 277 279 283 285 286 288 290 292 291 293 294
195 197 205 212 219 225 227 229 215 232 231 226 225 228 229 226 222 228 228 230 230 229 231 235 238 241 247 252 252 254 256 256 258 260 263 268 270 275 279 280 281 283 285 286 287 290 291 292 293
192 194 194 209 220 225 226 237 224 231 227 227 222 222 232 228 228 232 232 232 231 231 233 235 237 242 246 250 254 255 254 254 257 259 261 264 268 272 275 280 283 285 287 287 289 289 292 293 294
192 199 206 214 217 218 232 242 228 239 232 222 224 221 218 225 225 232 230 230 232 231 234 235 236 240 246 248 249 252 258 259 258 259 261 262 265 268 272 276 279 281 282 284 285 289 293 295 297
201 212 217 219 229 240 238 236 247 245 246 224 218 221 218 225 226 229 224 229 232 231 236 240 235 235 242 246 248 249 253 255 258 258 260 264 266 267 270 273 273 275 276 279 283 286 293 292 293
198 207 215 212 233 243 235 251 259 282 254 228 216 215 216 219 223 215 222 228 229 229 233 236 237 236 245 246 249 249 250 253 255 259 262 264 267 270 272 272 273 275 277 279 282 287 290 285 290
209 227 217 214 235 248 249 243 262 270 245 226 210 212 218 222 233 217 226 229 230 230 230 232 235 238 243 246 247 249 252 254 258 261 263 265 266 267 268 270 272 274 275 279 283 287 288 289 292
209 212 215 226 241 240 252 245 242 261 222 223 217 217 218 223 228 218 224 231 231 232 234 233 237 243 245 247 248 251 254 257 259 262 263 262 263 265 269 269 271 271 275 279 286 287 284 288 293